Regional Weather Roundup
Issued by NWS

Home | Current Version | Previous Version | Text Only | Print | Product List | Glossary Off
Versions: 1 2 3 4 5 6 7 8 9 10 11 12 13 14 15 16 17 18 19 20 21 22 23 24 25 26 27 28 29 30 31 32 33 34 35 36 37 38 39 40 41 42 43 44 45 46 47 48 49 50

976
ASUS43 KMPX 251701
RWRMN
WEATHER ROUNDUP FOR MINNESOTA
NATIONAL WEATHER SERVICE TWIN CITIES/CHANHASSEN MN
1200 PM CDT THU MAY 25 2017


NOTE: "FAIR" INDICATES FEW OR NO CLOUDS BELOW 12,000 FEET WITH NO
SIGNIFICANT WEATHER AND/OR OBSTRUCTIONS TO VISIBILITY. N/A MEANS
CURRENT SKY AND/OR WEATHER CONDITIONS ARE NOT AVAILABLE.

MNZ060>063-068>070-251800-
   Twin Cities Metro

CITY           SKY/WX    TMP DP  RH WIND       PRES   REMARKS
TWIN CITIES    PTSUNNY   66  48  52 S13       29.68S
ST PAUL        CLOUDY    64  50  60 S12       29.68F
CRYSTAL        PTSUNNY   64  46  52 SE12      29.66S
BLAINE         PTSUNNY   64  48  55 S9        29.68R
LAKEVILLE      MOSUNNY   64  50  59 SE9       29.68S
EDEN PRAIRIE   PTSUNNY   64  48  56 SE13      29.66S
SOUTH ST PAUL  MOSUNNY   65  49  57 S8        29.68S
LAKE ELMO      PTSUNNY   64  50  59 SE10G16   29.69F
$$
MNZ001>005-007-008-013>017-022>024-027-028-251800-
   Northwest Minnesota

CITY           SKY/WX    TMP DP  RH WIND       PRES   REMARKS
BEMIDJI        PTSUNNY   62  45  53 SE17G23   29.63S
HALLOCK        CLOUDY    64  46  52 S23G31    29.53F
ROSEAU         CLOUDY    63  48  59 S16       29.60S
WARROAD        MOSUNNY   63  48  59 SE21      29.62S
CROOKSTON      MOSUNNY   66  46  48 S23G30    29.55F
FOSSTON        CLOUDY    63  46  55 SE16G22   29.59F
DETROIT LAKES  MOSUNNY   63  46  55 S18G26    29.59S
MOORHEAD       MOSUNNY   64  46  52 SE26G32   29.53F
PARK RAPIDS    LGT RAIN  64  43  46 S20G25    29.62S
MAHNOMEN       CLOUDY    63  46  54 S15G22    29.58F
$$
MNZ006-009>011-018-025>026-251800-
   North Central Minnesota

CITY           SKY/WX    TMP DP  RH WIND       PRES   REMARKS
BAUDETTE       CLOUDY    65  46  50 SE16      29.63F
FLAG ISLAND    PTSUNNY   57  46  67 S17       29.62S
INTL FALLS     MOSUNNY   65  44  46 SE16G22   29.66F
WASKISH        CLOUDY    63  46  55 SE15G22   29.64S
BIG FORK       PTSUNNY   63  46  55 S12       29.66S
LONGVILLE      CLOUDY    61  46  59 SE12G17   29.66S
GRAND RAPIDS   PTSUNNY   61  46  57 S15       29.69S
CRANE LAKE     PTSUNNY   63  45  51 E3        29.71S
ORR            PTSUNNY   63  41  45 SE16G22   29.66F
COOK           CLOUDY    61  45  55 SE9       29.70S
WALKER         PTSUNNY   60  46  61 SE9       29.64S
$$
MNZ012-019>021-037-251800-
   Northeast Minnesota

CITY           SKY/WX    TMP DP  RH WIND       PRES   REMARKS
DULUTH         MOSUNNY   59  48  67 E10       29.72F
ELY            PTSUNNY   61  43  51 SE10G22   29.73R
HIBBING        CLOUDY    61  44  53 SE17G23   29.69F
EVELETH        CLOUDY    58  40  52 SE10      29.72F
DULUTH HARBOR  SUNNY     48  43  81 NE9       29.75S
TWO HARBORS    PTSUNNY   59  48  67 E16       29.73R
SILVER BAY     SUNNY     57  45  62 E14       29.73S
GRAND MARAIS     N/A     49  39  68 CALM      29.77S
G MARAIS ARPRT PTSUNNY   59  39  47 E9        29.77S
$$
MNZ029>031-032-039>041-046>048-054>057-064-251800-
   West Central Minnesota

CITY           SKY/WX    TMP DP  RH WIND       PRES   REMARKS
FERGUS FALLS   MOSUNNY   64  46  52 S25G33    29.55S
WHEATON        SUNNY     66  48  52 SE28G35   29.53F
MORRIS         MOSUNNY   66  52  59 S23G32    29.56F
ALEXANDRIA     PTSUNNY   64  45  49 SE24G31   29.61F
ELBOW LAKE     FAIR      64  50  59 SE22G30   29.57F
WADENA         MOSUNNY   61  46  59 SE17G24   29.62S
GLENWOOD       MOSUNNY   64  48  55 S21G28    29.62F
APPLETON       MOSUNNY   66  48  52 S22G29    29.56F
BENSON         MOSUNNY   66  48  52 S18G31    29.60S
ORTONVILLE     MOSUNNY   66  48  52 SE20G30   29.52F
MADISON        MOSUNNY   68  52  56 S21G31    29.55S
WILLMAR        FAIR      66  48  52 S16G26    29.62F
$$
MNZ033>034-036-042>043-049>051-058-059-251800-
   Central Minnesota

CITY           SKY/WX    TMP DP  RH WIND       PRES   REMARKS
ST CLOUD       MOSUNNY   61  50  67 S12       29.66S
SAUK CENTRE    PTSUNNY   62  48  59 SE18      29.64S
PAYNESVILLE    PTSUNNY   63  47  55 SE16      29.65S
AITKIN         CLOUDY    63  46  55 SE10      29.66R
PINE RIVER     MOSUNNY   61  50  67 SE12      29.70R
BRAINERD       CLOUDY    60  46  59 SE10G22   29.67R
STAPLES        PTSUNNY   61  45  55 SE12G18   29.64S
LONG PRAIRIE   PTSUNNY   61  46  59 E17       29.65R
LITTLE FALLS   CLOUDY    61  45  55 S16       29.66S
LITCHFIELD     MOSUNNY   63  52  67 SE10      29.65S
BUFFALO        PTSUNNY   63  48  58 S7        29.67F
MAPLE LAKE     PTSUNNY   64  53  65 SE7       29.67S
HUTCHINSON     CLOUDY    64  51  62 SE18      29.66S
$$
MNZ037-044-045-052-053-251800-
   East Central Minnesota

CITY           SKY/WX    TMP DP  RH WIND       PRES   REMARKS
PRINCETON      CLOUDY    64  50  59 S10       29.68R
MORA           PTSUNNY   61  46  59 SE7       29.70S
CAMBRIDGE      PTSUNNY   64  48  55 S13G20    29.66S
RUSH CITY      CLOUDY    63  48  58 S9        29.69S
MOOSE LAKE     PTSUNNY   63  46  55 E3        29.67S
HINCKLEY       PTSUNNY   63  46  55 E8        29.69S
CLOQUET        SUNNY     57  45  62 E12       29.71S
MCGREGOR       CLOUDY    63  46  55 S12G17    29.68S
$$
MNZ071>073-080-081-089-090-097-098-251800-
   Southwest Minnesota

CITY           SKY/WX    TMP DP  RH WIND       PRES   REMARKS
MONTEVIDEO     MOSUNNY   64  50  59 S18G29    29.58S
CANBY          SUNNY     67  50  53 S20G26    29.56S
MARSHALL       SUNNY     65  50  58 S26G35    29.57F
REDWOOD FALLS  CLOUDY    66  48  52 SE21G30   29.62S
OLIVIA         MOSUNNY   64  48  55 S16G26    29.62S
PIPESTONE      SUNNY     66  46  48 S23G33    29.55F
WINDOM         MOSUNNY   63  48  59 S15G23    29.63R
WORTHINGTON    SUNNY     64  49  57 S23G29    29.60F
JACKSON        PTSUNNY   63  48  59 SE18      29.64S
TRACY          SUNNY     64  52  64 S17G26    29.60S
SLAYTON        SUNNY     63  49  61 S21G29    29.60F
$$
MNZ065>067-074>077-082>085-091>093-251800-
   South Central Minnesota

CITY           SKY/WX    TMP DP  RH WIND       PRES   REMARKS
MANKATO        PTSUNNY   63  50  62 SE15      29.66F
NEW ULM        MOSUNNY   64  48  55 S15G24    29.65R
ST JAMES       CLOUDY    63  48  59 S14       29.66R
FAIRMONT       MOSUNNY   63  48  58 S16G24    29.65S
GLENCOE        PTSUNNY   65  53  65 SE9       29.65F
FARIBAULT      PTSUNNY   64  50  59 SE8       29.68F
OWATONNA       MOSUNNY   64  48  55 S8G16     29.68F
WASECA         MOSUNNY   63  50  63 SE10G17   29.68F
ALBERT LEA     SUNNY     64  52  63 SE7       29.68F
$$
MNZ078>079-086>088-094>096-251800-
   Southeast Minnesota

CITY           SKY/WX    TMP DP  RH WIND       PRES   REMARKS
ROCHESTER      PTSUNNY   61  53  75 E9        29.71S
RED WING       SUNNY     64  46  52 SE9       29.68F
STANTON        MOSUNNY   65  50  58 SE9       29.67S
DODGE CENTER   MOSUNNY   63  48  59 SE8       29.69F
WINONA         SUNNY     61  52  72 CALM      29.71R
AUSTIN         SUNNY     63  52  67 S3        29.69F
PRESTON        MOSUNNY   59  51  73 CALM      29.72R
$$
ABBREVIATIONS USED IN REMARKS
   TC - TEMPERATURES IN CELSIUS
  WCI - WIND CHILL INDEX
   HX - HEAT INDEX
  VSB - VISIBILITY
$$




USA.gov is the U.S. government's official web portal to all federal, state and local government web resources and services.